Location: Barcelona
(41.3830°N, 2.1830°E)
Time: 10:07:53
(UTC+01:00)

CAS-4B - Visible Passes

Search period start: 20 March 2019 00:00
Search period end: 30 March 2019 00:00
Orbit: 530 x 545 km, 43.0° (Epoch: 19 March)

Date Brightness Start Highest point End Pass type
(mag) Time Alt. Az. Time Alt. Az. Time Alt. Az.
20 Mar ? 20:31:01 10° WNW 20:35:06 89° NNE 20:36:20 44° ESE visible
20 Mar ? 22:11:25 10° W 22:11:42 12° W 22:11:42 12° W visible
21 Mar ? 20:21:02 10° WNW 20:25:07 82° SSW 20:26:54 32° ESE visible
21 Mar ? 22:01:37 10° W 22:02:16 13° W 22:02:16 13° W visible
22 Mar ? 20:11:04 10° WNW 20:15:08 71° SSW 20:17:30 24° ESE visible
22 Mar ? 21:51:52 10° W 21:52:53 14° WSW 21:52:53 14° WSW visible
23 Mar ? 20:01:07 10° WNW 20:05:09 60° SSW 20:08:09 17° SE visible
23 Mar ? 21:42:17 10° WSW 21:43:32 14° WSW 21:43:32 14° WSW visible
24 Mar ? 19:51:12 10° W 19:55:08 50° SSW 19:58:52 11° SE visible
24 Mar ? 21:32:58 10° WSW 21:34:15 12° SW 21:34:15 12° SW visible
25 Mar ? 19:41:16 10° W 19:45:07 41° SSW 19:48:57 10° SE visible
26 Mar ? 19:31:23 10° W 19:35:04 34° SSW 19:38:45 10° SE visible
